This demonstration page uses our WeatherBlox Daily Observations layout. Learn more.

Left ArrowRight Arrow

44.89941, -97.11507

Hourly Observations for January 9, 2021

Temp ( °F °C ) Dew Point ( °F °C ) Humidity (%) Winds ( mph kmh ) Pressure ( in mb ) Visibility ( mi km ) Precip ( " mm )
12:17 am 00:17 Cloudy with Mist and Fog 28 -2.2 28 -2.2 100 100 Calm 30.41 1030 2 3 0.00 0.00
12:27 am 00:27 Cloudy with Mist and Fog 28 -2.2 28 -2.2 100 100 Calm 30.42 1030 1 2 0.00 0.00
12:37 am 00:37 Cloudy with Mist and Fog 28 -2.2 28 -2.2 100 100 Calm 30.42 1030 1 1 0.00 0.00
12:43 am 00:43 Cloudy with Mist and Fog 27 -2.8 27 -2.8 100 100 Calm 30.42 1030 2 2 0.00 0.00
12:51 am 00:51 Cloudy with Mist and Fog 28 -2 27 -3 93 93 Calm 30.41 1030 3 4 0.00 0.00
12:53 am 00:53 Cloudy with Mist and Fog 28 -2.2 27 -2.8 96 96 Calm 30.38 1029 2 3 0.00 0.00
1:01 am 01:01 Cloudy with Mist and Fog 28 -2.2 27 -2.8 96 96 Calm 30.41 1030 2 3 0.00 0.00
1:07 am 01:07 Cloudy with Mist and Fog 28 -2.2 27 -2.8 96 96 Calm 30.42 1030 3 5 0.00 0.00
1:19 am 01:19 Cloudy with Mist and Fog 27 -2.8 27 -2.8 100 100 Calm 30.41 1030 3 4 0.00 0.00
1:30 am 01:30 Cloudy with Mist and Fog 27 -2.8 27 -2.8 100 100 NNE 5 7 30.41 1030 1 2 0.00 0.00
1:53 am 01:53 Cloudy with Mist and Fog 27 -2.8 27 -2.8 100 100 NNE 7 11 30.38 1029 1 2 0.00 0.00
2:01 am 02:01 Cloudy with Mist and Fog 27 -2.8 26 -3.3 96 96 N 6 9 30.41 1030 2 3 0.00 0.00
2:10 am 02:10 Cloudy with Mist and Fog 26 -3.3 26 -3.3 100 100 N 6 9 30.41 1030 1 2 0.00 0.00
2:37 am 02:37 Cloudy with Freezing Fog 26 -3.3 25 -3.9 96 96 NE 6 9 30.42 1030 1 1 0.00 0.00
2:53 am 02:53 Cloudy with Mist and Fog 25 -3.9 25 -3.9 100 100 NNE 5 7 30.40 1029 1 2 0.00 0.00
2:58 am 02:58 Cloudy with Mist and Fog 25 -3.9 25 -3.9 100 100 NE 6 9 30.43 1030 2 3 0.00 0.00
3:09 am 03:09 Cloudy with Mist and Fog 25 -3.9 25 -3.9 100 100 NNE 3 6 30.44 1031 2 3 0.00 0.00
3:17 am 03:17 Cloudy with Mist and Fog 25 -3.9 25 -3.9 100 100 NNE 3 6 30.44 1031 1 1 0.00 0.00
3:46 am 03:46 Mostly Cloudy with Freezing Fog 25 -3.9 25 -3.9 100 100 Calm 30.43 1030 0 0 0.00 0.00
3:53 am 03:53 Mostly Cloudy with Freezing Fog 25 -3.9 25 -3.9 100 100 NNE 3 6 30.40 1029 0 0 0.00 0.00
4:10 am 04:10 Mostly Cloudy with Freezing Fog 25 -3.9 25 -3.9 100 100 ENE 3 6 30.43 1030 1 1 0.00 0.00
4:39 am 04:39 Cloudy with Mist and Fog 25 -3.9 24 -4.4 96 96 N 3 6 30.44 1031 1 2 0.00 0.00
4:46 am 04:46 Cloudy with Mist and Fog 24 -4.4 24 -4.4 100 100 NE 3 6 30.44 1031 2 3 0.00 0.00
4:53 am 04:53 Cloudy with Mist and Fog 24 -4.4 24 -4.4 100 100 NNE 5 7 30.40 1030 2 3 0.00 0.00
5:16 am 05:16 Cloudy with Mist and Fog 24 -4.4 24 -4.4 100 100 NE 5 7 30.44 1031 2 3 0.00 0.00
5:26 am 05:26 Cloudy with Mist and Fog 24 -4.4 24 -4.4 100 100 NNE 5 7 30.44 1031 3 4 0.00 0.00
5:50 am 05:50 Cloudy with Mist and Fog 25 -4 25 -4 100 100 NE 5 7 30.43 1030 4 6 0.00 0.00
5:53 am 05:53 Cloudy with Mist and Fog 24 -4.4 24 -4.4 100 100 NNE 5 7 30.40 1029 4 6 0.00 0.00
6:16 am 06:16 Cloudy with Mist and Fog 24 -4.4 24 -4.4 100 100 NNE 5 7 30.43 1031 2 3 0.00 0.00
6:28 am 06:28 Cloudy with Mist and Fog 24 -4.4 24 -4.4 100 100 NE 5 7 30.44 1031 3 5 0.00 0.00
6:53 am 06:53 Cloudy with Mist and Fog 24 -4.4 24 -4.4 100 100 NE 3 6 30.40 1030 4 6 0.00 0.00
7:13 am 07:13 Cloudy with Mist and Fog 25 -3.9 25 -3.9 100 100 Calm 30.44 1031 3 4 0.00 0.00
7:32 am 07:32 Cloudy with Mist and Fog 25 -3.9 24 -4.4 96 96 Calm 30.45 1031 3 5 0.00 0.00
7:53 am 07:53 Cloudy with Mist and Fog 25 -3.9 24 -4.4 96 96 Calm 30.41 1030 4 6 0.00 0.00
8:53 am 08:53 Cloudy with Mist and Fog 25 -3.9 25 -3.9 100 100 NW 5 7 30.43 1031 3 5 0.00 0.00
9:01 am 09:01 Cloudy with Mist and Fog 25 -3.9 25 -3.9 100 100 NNW 5 7 30.47 1032 2 3 0.00 0.00
9:53 am 09:53 Cloudy with Mist and Fog 25 -3.9 25 -3.9 100 100 N 3 6 30.44 1031 3 4 0.00 0.00
10:16 am 10:16 Cloudy with Mist and Fog 26 -3.3 25 -3.9 96 96 N 3 6 30.47 1032 4 6 0.00 0.00
10:49 am 10:49 Cloudy 27 -3 25 -4 93 93 N 7 11 30.48 1032 7 11 0.00 0.00
10:53 am 10:53 Cloudy 26 -3.3 25 -3.9 96 96 N 6 9 30.45 1031 7 11 0.00 0.00
11:53 am 11:53 Cloudy 26 -3.3 24 -4.4 92 92 NE 5 7 30.44 1031 9 14 0.00 0.00
12:53 pm 12:53 Cloudy 27 -2.8 25 -3.9 92 92 Calm 30.42 1030 10 16 0.00 0.00
1:53 pm 13:53 Cloudy 28 -2.2 26 -3.3 92 92 WNW 3 6 30.41 1030 10 16 0.00 0.00
1:57 pm 13:57 Cloudy 28 -2.2 26 -3.3 92 92 NW 7 11 30.44 1031 10 16 0.00 0.00
2:16 pm 14:16 Cloudy 29 -1.7 26 -3.3 89 89 N 8 13 30.43 1031 10 16 0.00 0.00
2:53 pm 14:53 Cloudy 29 -1.7 26 -3.3 89 89 N 7 11 30.41 1030 10 16 0.00 0.00
3:14 pm 15:14 Cloudy 29 -1.7 26 -3.3 89 89 N 7 11 30.43 1031 10 16 0.00 0.00
3:25 pm 15:25 Cloudy 29 -1.7 26 -3.3 89 89 NNW 6 9 30.43 1031 10 16 0.00 0.00
3:53 pm 15:53 Cloudy 29 -1.7 26 -3.3 89 89 NNW 5 7 30.42 1030 10 16 0.00 0.00
4:08 pm 16:08 Cloudy 29 -1.7 27 -2.8 92 92 NNW 7 11 30.44 1031 10 16 0.00 0.00
4:15 pm 16:15 Cloudy 29 -1.7 27 -2.8 92 92 NNW 8 13 30.44 1031 10 16 0.00 0.00
4:27 pm 16:27 Cloudy 29 -1.7 27 -2.8 92 92 NNW 6 9 30.44 1031 10 16 0.00 0.00
4:35 pm 16:35 Cloudy 29 -1.7 27 -2.8 92 92 NNW 6 9 30.44 1031 10 16 0.00 0.00
4:53 pm 16:53 Cloudy 29 -1.7 27 -2.8 92 92 N 8 13 30.43 1031 10 16 0.00 0.00
5:05 pm 17:05 Cloudy 29 -1.7 27 -2.8 92 92 N 6 9 30.45 1031 9 14 0.00 0.00
5:40 pm 17:40 Cloudy 29 -1.7 27 -2.8 92 92 NNW 6 9 30.45 1031 10 16 0.00 0.00
5:53 pm 17:53 Cloudy 29 -1.7 27 -2.8 92 92 NNW 5 7 30.44 1031 10 16 0.00 0.00
6:51 pm 18:51 Cloudy with Light Snow 28 -2 28 -2 100 100 NNW 6 9 30.46 1031 8 13 0.00 0.00
6:53 pm 18:53 Cloudy 29 -1.7 28 -2.2 96 96 NNW 6 9 30.44 1031 9 14 0.00 0.00
7:32 pm 19:32 Cloudy 29 -1.7 27 -2.8 92 92 NNW 7 11 30.45 1031 10 16 0.00 0.00
7:53 pm 19:53 Cloudy 29 -1.7 27 -2.8 92 92 NNW 7 11 30.44 1031 10 16 0.00 0.00
8:53 pm 20:53 Cloudy 29 -1.7 27 -2.8 92 92 NNW 6 9 30.44 1031 10 16 0.00 0.00
9:40 pm 21:40 Cloudy 29 -1.7 28 -2.2 96 96 WNW 5 7 30.45 1031 10 16 0.00 0.00
9:53 pm 21:53 Cloudy 29 -1.7 28 -2.2 96 96 NW 6 9 30.43 1031 10 16 0.00 0.00
10:38 pm 22:38 Cloudy 29 -1.7 28 -2.2 96 96 NW 6 9 30.45 1031 10 16 0.00 0.00
10:53 pm 22:53 Cloudy 29 -1.7 28 -2.2 96 96 NW 7 11 30.43 1031 10 16 0.00 0.00
11:53 pm 23:53 Cloudy 29 -1.7 28 -2.2 96 96 WNW 5 7 30.42 1030 7 11 0.00 0.00

Powered by AerisWeather